EW4462 Weather Reports


Display with metric or nautical units.
time (UTC)temp
F
wind
direction
speed
MPH
gust
MPH
rain 1hr
in
rain 24hr
in
rain mn
in
humidity
%
barometer
mb
20260905064320 64 109 0.0 0.0 0.00 0.00 0.00 88 1014.5
20260905063251 64 109 0.0 0.0 0.00 0.00 0.00 88 1014.6
20260905061048 65 109 0.0 0.0 0.00 0.00 0.00 87 1014.4
20260905060105 65 109 0.0 0.0 0.00 0.00 0.00 86 1014.4
20260905055049 65 109 0.0 0.0 0.00 0.00 0.00 87 1014.2
20260905054015 65 109 0.0 0.0 0.00 0.00 0.00 86 1014.2
20260905051836 65 109 0.0 0.0 0.00 0.00 0.00 86 1014.3
20260905050836 66 109 0.0 0.0 0.00 0.00 0.00 85 1014.4
20260905045844 66 109 0.0 0.0 0.00 0.00 0.00 85 1014.3
20260905044838 66 109 0.0 0.0 0.00 0.00 0.00 84 1014.1
20260905043850 66 109 0.0 0.0 0.00 0.00 0.00 84 1014.0
20260905042900 67 109 0.0 0.0 0.00 0.00 0.00 84 1013.7
20260905041850 67 109 0.0 0.0 0.00 0.00 0.00 83 1013.6
20260905040829 67 109 0.0 0.0 0.00 0.00 0.00 82 1013.7
20260905034634 68 109 0.0 0.0 0.00 0.00 0.00 82 1013.6
20260905033618 69 109 0.0 0.0 0.00 0.00 0.00 81 1013.5
20260905032631 69 110 0.0 0.0 0.00 0.00 0.00 80 1013.3
20260905025330 70 109 0.0 0.0 0.00 0.00 0.00 78 1012.9
20260905023204 71 109 0.0 0.0 0.00 0.00 0.00 77 1013.0
20260905021105 71 109 0.0 0.0 0.00 0.00 0.00 75 1013.1
20260905014915 73 142 0.0 0.0 0.00 0.00 0.00 73 1013.0
20260905013910 73 148 0.0 0.0 0.00 0.00 0.00 71 1012.9
20260905011739 74 112 0.0 0.0 0.00 0.00 0.00 69 1012.8
20260905010756 75 115 0.0 0.0 0.00 0.00 0.00 67 1013.0
20260905005754 76 147 0.0 0.0 0.00 0.00 0.00 66 1012.8
20260905004732 77 111 0.0 0.0 0.00 0.00 0.00 64 1013.0
20260905003733 78 88 0.0 0.0 0.00 0.00 0.00 63 1013.1
20260905002719 79 107 0.0 0.0 0.00 0.00 0.00 63 1013.0
20260905000515 79 115 0.0 0.0 0.00 0.00 0.00 62 1013.0
20260904233230 79 90 0.0 0.0 0.00 0.00 0.00 60 1013.1
20260904231119 80 102 0.0 0.0 0.00 0.00 0.00 59 1013.1
20260904230116 79 115 0.0 0.0 0.00 0.00 0.00 60 1013.2
20260904225047 79 117 0.0 0.0 0.00 0.00 0.00 60 1013.3
20260904224042 79 115 0.0 0.0 0.00 0.00 0.00 59 1013.2
20260904223104 80 105 0.0 0.0 0.00 0.00 0.00 58 1013.4
20260904222114 80 107 0.0 0.0 0.00 0.00 0.00 59 1013.6
20260904221102 79 80 0.0 3.0 0.00 0.00 0.00 59 1013.6
20260904220058 80 121 0.0 0.0 0.00 0.00 0.00 59 1013.6
20260904215100 80 117 0.0 0.0 0.00 0.00 0.00 59 1013.5
20260904214034 79 122 0.0 0.0 0.00 0.00 0.00 61 1013.7
20260904213011 79 82 0.0 0.0 0.00 0.00 0.00 60 1013.8
20260904212032 79 98 0.0 0.0 0.00 0.00 0.00 61 1013.8
20260904205930 78 109 0.0 0.0 0.00 0.00 0.00 62 1013.9
20260904204927 78 108 0.0 0.0 0.00 0.00 0.00 62 1014.0
20260904203938 78 128 0.0 0.0 0.00 0.00 0.00 63 1014.0
20260904202951 78 95 0.0 0.0 0.00 0.00 0.00 63 1013.9
20260904201948 78 88 0.0 1.0 0.00 0.00 0.00 62 1013.9
20260904200956 78 91 0.0 8.0 0.00 0.00 0.00 63 1013.9
20260904195930 77 112 0.0 0.0 0.00 0.00 0.00 63 1013.9
20260904194954 78 116 0.0 0.0 0.00 0.00 0.00 63 1014.0
20260904193953 78 111 0.0 0.0 0.00 0.00 0.00 62 1014.0
20260904193017 78 112 0.0 0.0 0.00 0.00 0.00 62 1014.1
20260904192032 78 105 0.0 0.0 0.00 0.00 0.00 62 1014.1
20260904185842 78 117 0.0 0.0 0.00 0.00 0.00 63 1014.3
20260904184834 79 119 0.0 0.0 0.00 0.00 0.00 61 1014.4
20260904182654 77 118 0.0 0.0 0.00 0.00 0.00 63 1014.6
20260904181659 77 105 0.0 0.0 0.00 0.00 0.00 64 1014.5
20260904180636 77 103 0.0 0.0 0.00 0.00 0.00 63 1014.7
20260904174538 76 130 0.0 0.0 0.00 0.00 0.00 65 1014.8
20260904173534 75 105 0.0 0.0 0.00 0.00 0.00 67 1014.8
20260904172507 75 105 0.0 0.0 0.00 0.00 0.00 66 1014.8
20260904171501 75 110 0.0 0.0 0.00 0.00 0.00 66 1014.9
20260904170428 74 54 0.0 0.0 0.00 0.00 0.00 66 1014.9
20260904165425 74 108 0.0 0.0 0.00 0.00 0.00 67 1014.9
20260904164355 74 93 0.0 0.0 0.00 0.00 0.00 68 1014.8
20260904163323 74 93 0.0 0.0 0.00 0.00 0.00 67 1014.7
20260904162344 73 102 0.0 0.0 0.00 0.00 0.00 70 1014.5
20260904161402 72 98 0.0 0.0 0.00 0.00 0.00 70 1014.5
20260904155313 72 97 0.0 0.0 0.00 0.00 0.00 72 1014.3
20260904154308 71 355 0.0 0.0 0.00 0.00 0.00 73 1014.2
20260904153258 71 355 0.0 0.0 0.00 0.00 0.00 72 1014.1
20260904152301 71 355 0.0 0.0 0.00 0.00 0.00 73 1014.2
20260904150134 69 355 0.0 0.0 0.00 0.00 0.00 77 1014.1
20260904144034 66 336 0.0 0.0 0.00 0.00 0.00 82 1013.8
20260904140725 64 334 0.0 0.0 0.00 0.00 0.00 85 1013.8
20260904134551 64 335 0.0 0.0 0.00 0.00 0.00 85 1013.5
20260904133522 64 335 0.0 0.0 0.00 0.00 0.00 85 1013.4
20260904131400 64 334 0.0 0.0 0.00 0.00 0.00 85 1013.3
20260904125217 64 335 0.0 0.0 0.00 0.00 0.00 85 1013.2
20260904124218 64 335 0.0 0.0 0.00 0.00 0.00 85 1013.1
20260904123235 64 335 0.0 0.0 0.00 0.00 0.00 85 1013.1
20260904122245 64 335 0.0 0.0 0.00 0.00 0.00 85 1013.0
20260904121226 64 335 0.0 0.0 0.00 0.00 0.00 85 1013.0
20260904120238 65 335 0.0 0.0 0.00 0.00 0.00 85 1012.9
20260904115244 65 336 0.0 0.0 0.00 0.00 0.00 84 1013.0
20260904114253 65 336 0.0 0.0 0.00 0.00 0.00 85 1013.2
20260904113252 66 336 0.0 0.0 0.00 0.00 0.00 84 1013.1
20260904112248 66 336 0.0 0.0 0.00 0.00 0.00 85 1013.1
20260904111253 66 339 0.0 0.0 0.00 0.00 0.00 85 1013.2
20260904105141 65 42 0.0 0.0 0.00 0.00 0.00 87 1013.1
20260904104155 65 42 0.0 0.0 0.00 0.00 0.00 87 1013.0
20260904103122 65 93 0.0 0.0 0.00 0.00 0.00 88 1013.0
20260904102139 64 93 0.0 0.0 0.00 0.00 0.00 88 1012.9
20260904101121 64 93 0.0 0.0 0.00 0.00 0.00 89 1012.8
20260904100114 64 93 0.0 0.0 0.00 0.00 0.00 89 1012.9
20260904095112 63 93 0.0 0.0 0.00 0.00 0.00 90 1012.9
20260904092939 63 93 0.0 0.0 0.00 0.00 0.00 89 1012.9
20260904091946 63 93 0.0 0.0 0.00 0.00 0.00 88 1013.0
20260904090954 63 93 0.0 0.0 0.00 0.00 0.00 89 1012.9
20260904085940 63 93 0.0 0.0 0.00 0.00 0.00 89 1013.0
20260904084908 63 93 0.0 0.0 0.00 0.00 0.00 88 1013.1
20260904083927 63 93 0.0 0.0 0.00 0.00 0.00 88 1013.1
20260904081823 63 93 0.0 0.0 0.00 0.00 0.00 88 1013.3
20260904080803 63 93 0.0 0.0 0.00 0.00 0.00 88 1013.4
20260904074623 63 93 0.0 0.0 0.00 0.00 0.00 88 1013.4
20260904073614 63 93 0.0 0.0 0.00 0.00 0.00 87 1013.4
20260904072601 63 93 0.0 0.0 0.00 0.00 0.00 88 1013.4
20260904071536 63 93 0.0 0.0 0.00 0.00 0.00 87 1013.4
20260904070524 64 93 0.0 0.0 0.00 0.00 0.00 87 1013.4
20260904065531 64 93 0.0 0.0 0.00 0.00 0.00 87 1013.4